Time,TemperatureF,DewpointF,PressureIn,WindDirection,WindDirectionDegrees,WindSpeedMPH,WindSpeedGustMPH,Humidity,HourlyPrecipIn,Conditions,Clouds,dailyrainin,SolarRadiationWatts/m^2,SoftwareType,DateUTC
2013-06-18 00:00:00,61.0,58.0,-100.00,South,180,1.0,-999.0,90,-99.99,,,-99.99,0.000000,,2013-06-18 04:00:00,
2013-06-18 00:43:00,61.0,58.0,-100.00,South,180,1.0,-999.0,90,-99.99,,,-99.99,0.000000,,2013-06-18 04:43:00,
2013-06-18 00:54:00,61.0,58.0,-100.00,South,180,1.0,-999.0,90,-99.99,,,-99.99,0.000000,,2013-06-18 04:54:00,
2013-06-18 01:00:00,61.0,58.0,-100.00,East,90,7.0,-999.0,91,-99.99,,,-99.99,0.000000,,2013-06-18 05:00:00,
2013-06-18 01:43:00,61.0,58.0,-100.00,East,90,7.0,-999.0,91,-99.99,,,-99.99,0.000000,,2013-06-18 05:43:00,
2013-06-18 01:53:00,61.0,58.0,-100.00,East,90,7.0,-999.0,91,-99.99,,,-99.99,0.000000,,2013-06-18 05:53:00,
2013-06-18 02:00:00,59.0,56.0,-100.00,East,90,6.0,-999.0,89,-99.99,,,-99.99,0.000000,,2013-06-18 06:00:00,
2013-06-18 02:43:00,59.0,56.0,-100.00,East,90,6.0,-999.0,89,-99.99,,,-99.99,0.000000,,2013-06-18 06:43:00,
2013-06-18 02:53:00,59.0,56.0,-100.00,East,90,6.0,-999.0,89,-99.99,,,-99.99,0.000000,,2013-06-18 06:53:00,
2013-06-18 03:00:00,58.0,55.0,-100.00,East,90,6.0,-999.0,89,-99.99,,,-99.99,0.000000,,2013-06-18 07:00:00,
2013-06-18 03:43:00,58.0,55.0,-100.00,East,90,6.0,-999.0,89,-99.99,,,-99.99,0.000000,,2013-06-18 07:43:00,
2013-06-18 03:53:00,58.0,55.0,-100.00,East,90,6.0,-999.0,89,-99.99,,,-99.99,0.000000,,2013-06-18 07:53:00,
2013-06-18 04:00:00,57.0,54.0,-100.00,East,90,5.0,-999.0,88,-99.99,,,-99.99,0.000000,,2013-06-18 08:00:00,
2013-06-18 04:43:00,57.0,54.0,-100.00,East,90,5.0,-999.0,88,-99.99,,,-99.99,0.000000,,2013-06-18 08:43:00,
2013-06-18 04:52:00,57.0,54.0,-100.00,East,90,5.0,-999.0,88,-99.99,,,-99.99,0.000000,,2013-06-18 08:52:00,
2013-06-18 05:00:00,56.0,52.0,-100.00,East,90,5.0,-999.0,88,-99.99,,,-99.99,0.000000,,2013-06-18 09:00:00,
2013-06-18 05:43:00,56.0,52.0,-100.00,East,90,5.0,-999.0,88,-99.99,,,-99.99,0.000000,,2013-06-18 09:43:00,
2013-06-18 05:53:00,56.0,52.0,-100.00,East,90,5.0,-999.0,88,-99.99,,,-99.99,0.000000,,2013-06-18 09:53:00,
2013-06-18 06:00:00,54.0,51.0,-100.00,East,90,4.0,-999.0,90,-99.99,,,-99.99,0.000000,,2013-06-18 10:00:00,
2013-06-18 06:43:00,54.0,51.0,-100.00,East,90,4.0,-999.0,90,-99.99,,,-99.99,0.000000,,2013-06-18 10:43:00,
2013-06-18 06:53:00,54.0,51.0,-100.00,East,90,4.0,-999.0,90,-99.99,,,-99.99,0.000000,,2013-06-18 10:53:00,
2013-06-18 07:00:00,53.0,51.0,-100.00,East,90,4.0,-999.0,90,-99.99,,,-99.99,24.360001,,2013-06-18 11:00:00,
2013-06-18 07:43:00,53.0,51.0,-100.00,East,90,4.0,-999.0,90,-99.99,,,-99.99,24.360001,,2013-06-18 11:43:00,
2013-06-18 07:52:00,53.0,51.0,-100.00,East,90,4.0,-999.0,90,-99.99,,,-99.99,24.360001,,2013-06-18 11:52:00,
2013-06-18 08:00:00,55.0,50.0,-100.00,East,90,4.0,-999.0,83,-99.99,,,-99.99,122.959999,,2013-06-18 12:00:00,
2013-06-18 08:43:00,55.0,50.0,-100.00,East,90,4.0,-999.0,83,-99.99,,,-99.99,122.959999,,2013-06-18 12:43:00,
2013-06-18 08:52:00,55.0,50.0,-100.00,East,90,4.0,-999.0,83,-99.99,,,-99.99,122.959999,,2013-06-18 12:52:00,
2013-06-18 09:00:00,58.0,49.0,-100.00,East,90,7.0,-999.0,73,-99.99,,,-99.99,323.640015,,2013-06-18 13:00:00,
2013-06-18 09:43:00,58.0,49.0,-100.00,East,90,7.0,-999.0,73,-99.99,,,-99.99,323.640015,,2013-06-18 13:43:00,
2013-06-18 09:53:00,58.0,49.0,-100.00,East,90,7.0,-999.0,73,-99.99,,,-99.99,323.640015,,2013-06-18 13:53:00,
2013-06-18 10:00:00,60.0,50.0,-100.00,East,90,7.0,-999.0,69,-99.99,,,-99.99,482.559998,,2013-06-18 14:00:00,
2013-06-18 10:43:00,60.0,50.0,-100.00,East,90,7.0,-999.0,69,-99.99,,,-99.99,482.559998,,2013-06-18 14:43:00,
2013-06-18 10:53:00,60.0,50.0,-100.00,East,90,7.0,-999.0,69,-99.99,,,-99.99,482.559998,,2013-06-18 14:53:00,
2013-06-18 11:00:00,63.0,51.0,-100.00,East,90,6.0,-999.0,64,-99.99,,,-99.99,625.239990,,2013-06-18 15:00:00,
2013-06-18 11:43:00,63.0,51.0,-100.00,East,90,6.0,-999.0,64,-99.99,,,-99.99,625.239990,,2013-06-18 15:43:00,
2013-06-18 11:53:00,63.0,51.0,-100.00,East,90,6.0,-999.0,64,-99.99,,,-99.99,625.239990,,2013-06-18 15:53:00,
2013-06-18 12:00:00,65.0,50.0,-100.00,East,90,6.0,-999.0,59,-99.99,,,-99.99,743.559998,,2013-06-18 16:00:00,
2013-06-18 12:43:00,65.0,50.0,-100.00,East,90,6.0,-999.0,59,-99.99,,,-99.99,743.559998,,2013-06-18 16:43:00,
2013-06-18 12:53:00,65.0,50.0,-100.00,East,90,6.0,-999.0,59,-99.99,,,-99.99,743.559998,,2013-06-18 16:53:00,
2013-06-18 13:00:00,66.0,50.0,-100.00,East,90,7.0,-999.0,56,-99.99,,,-99.99,801.559998,,2013-06-18 17:00:00,
2013-06-18 13:43:00,66.0,50.0,-100.00,East,90,7.0,-999.0,56,-99.99,,,-99.99,801.559998,,2013-06-18 17:43:00,
2013-06-18 13:53:00,66.0,50.0,-100.00,East,90,7.0,-999.0,56,-99.99,,,-99.99,801.559998,,2013-06-18 17:53:00,
2013-06-18 14:00:00,68.0,49.0,-100.00,East,90,6.0,-999.0,52,-99.99,,,-99.99,854.919983,,2013-06-18 18:00:00,
2013-06-18 14:43:00,68.0,49.0,-100.00,East,90,6.0,-999.0,52,-99.99,,,-99.99,854.919983,,2013-06-18 18:43:00,
2013-06-18 14:53:00,68.0,49.0,-100.00,East,90,6.0,-999.0,52,-99.99,,,-99.99,854.919983,,2013-06-18 18:53:00,
2013-06-18 15:00:00,69.0,48.0,-100.00,East,90,8.0,-999.0,47,-99.99,,,-99.99,892.039978,,2013-06-18 19:00:00,
2013-06-18 15:43:00,69.0,48.0,-100.00,East,90,8.0,-999.0,47,-99.99,,,-99.99,892.039978,,2013-06-18 19:43:00,
2013-06-18 15:53:00,69.0,48.0,-100.00,East,90,8.0,-999.0,47,-99.99,,,-99.99,892.039978,,2013-06-18 19:53:00,
2013-06-18 16:00:00,69.0,47.0,-100.00,East,90,8.0,-999.0,45,-99.99,,,-99.99,777.200012,,2013-06-18 20:00:00,
2013-06-18 16:43:00,69.0,47.0,-100.00,East,90,8.0,-999.0,45,-99.99,,,-99.99,777.200012,,2013-06-18 20:43:00,
2013-06-18 16:53:00,69.0,47.0,-100.00,East,90,8.0,-999.0,45,-99.99,,,-99.99,777.200012,,2013-06-18 20:53:00,
2013-06-18 17:00:00,69.0,44.0,-100.00,East,90,7.0,-999.0,40,-99.99,,,-99.99,689.039978,,2013-06-18 21:00:00,
2013-06-18 17:43:00,69.0,44.0,-100.00,East,90,7.0,-999.0,40,-99.99,,,-99.99,689.039978,,2013-06-18 21:43:00,
2013-06-18 17:52:00,69.0,44.0,-100.00,East,90,7.0,-999.0,40,-99.99,,,-99.99,689.039978,,2013-06-18 21:52:00,
2013-06-18 18:00:00,69.0,43.0,-100.00,East,90,7.0,-999.0,38,-99.99,,,-99.99,563.760010,,2013-06-18 22:00:00,
2013-06-18 18:43:00,69.0,43.0,-100.00,East,90,7.0,-999.0,38,-99.99,,,-99.99,563.760010,,2013-06-18 22:43:00,
2013-06-18 18:53:00,69.0,43.0,-100.00,East,90,7.0,-999.0,38,-99.99,,,-99.99,563.760010,,2013-06-18 22:53:00,
2013-06-18 19:00:00,69.0,43.0,-100.00,ESE,112,6.0,-999.0,39,-99.99,,,-99.99,400.200012,,2013-06-18 23:00:00,
2013-06-18 19:48:00,69.0,43.0,-100.00,ESE,112,6.0,-999.0,39,-99.99,,,-99.99,400.200012,,2013-06-18 23:48:00,
2013-06-18 20:00:00,67.0,43.0,-100.00,ESE,112,6.0,-999.0,41,-99.99,,,-99.99,237.800003,,2013-06-19 00:00:00,
2013-06-18 20:33:00,67.0,43.0,-100.00,ESE,112,6.0,-999.0,41,-99.99,,,-99.99,237.800003,,2013-06-19 00:33:00,
2013-06-18 20:43:00,67.0,43.0,-100.00,ESE,112,6.0,-999.0,41,-99.99,,,-99.99,237.800003,,2013-06-19 00:43:00,
2013-06-18 20:53:00,67.0,43.0,-100.00,ESE,112,6.0,-999.0,41,-99.99,,,-99.99,237.800003,,2013-06-19 00:53:00,
2013-06-18 21:00:00,65.0,44.0,-100.00,East,90,5.0,-999.0,46,-99.99,,,-99.99,91.639999,,2013-06-19 01:00:00,
2013-06-18 21:43:00,65.0,44.0,-100.00,East,90,5.0,-999.0,46,-99.99,,,-99.99,91.639999,,2013-06-19 01:43:00,
2013-06-18 21:53:00,65.0,44.0,-100.00,East,90,5.0,-999.0,46,-99.99,,,-99.99,91.639999,,2013-06-19 01:53:00,
2013-06-18 22:00:00,61.0,44.0,-100.00,East,90,3.0,-999.0,53,-99.99,,,-99.99,5.800000,,2013-06-19 02:00:00,
2013-06-18 22:43:00,61.0,44.0,-100.00,East,90,3.0,-999.0,53,-99.99,,,-99.99,5.800000,,2013-06-19 02:43:00,
2013-06-18 22:52:00,61.0,44.0,-100.00,East,90,3.0,-999.0,53,-99.99,,,-99.99,5.800000,,2013-06-19 02:52:00,
2013-06-18 23:00:00,59.0,44.0,-100.00,East,90,3.0,-999.0,56,-99.99,,,-99.99,0.000000,,2013-06-19 03:00:00,
2013-06-18 23:43:00,59.0,44.0,-100.00,East,90,3.0,-999.0,56,-99.99,,,-99.99,0.000000,,2013-06-19 03:43:00,
2013-06-18 23:52:00,59.0,44.0,-100.00,East,90,3.0,-999.0,56,-99.99,,,-99.99,0.000000,,2013-06-19 03:52:00,